When you browse on this site, cookies collect data to enhance your experience and personalize the content and advertising you see.
Visit our Privacy Policy to learn more. By continuing to use the site, you agree to this use of cookies and data.
  • In Portugal
  • List of Countries
  • For 7 days
  • Water Temperature
  • Weather Map
  • Weather Widgets
  • user-avatar
    Login

    Hourly Weather Eisenstadt

    Today, 22 September, Sunday

    Time Temperature Precipitation Wind Pressure Humidity
    00:00 +8°C° 0 mm 2 mps 725 mmHg 68%
    01:00 +8°C° 0 mm 3 mps 725 mmHg 67%
    02:00 +8°C° 0 mm 3 mps 725 mmHg 69%
    03:00 +7°C° 0 mm 3 mps 724 mmHg 70%
    04:00 +7°C° 0 mm 3 mps 724 mmHg 72%
    05:00 +8°C° 0 mm 3 mps 724 mmHg 70%
    06:00 +8°C° 0 mm 3 mps 724 mmHg 68%
    07:00 +9°C° 0 mm 3 mps 724 mmHg 64%
    08:00 +11°C° 0 mm 4 mps 724 mmHg 58%
    09:00 +13°C° 0 mm 4 mps 724 mmHg 51%
    10:00 +15°C° 0 mm 4 mps 723 mmHg 45%
    11:00 +16°C° 0 mm 5 mps 723 mmHg 44%
    12:00 +17°C° 0 mm 5 mps 722 mmHg 43%
    13:00 +17°C° 0 mm 5 mps 722 mmHg 43%
    14:00 +18°C° 0 mm 4 mps 721 mmHg 46%
    15:00 +18°C° 0 mm 4 mps 721 mmHg 49%
    16:00 +18°C° 0 mm 4 mps 721 mmHg 53%
    17:00 +17°C° 0 mm 3 mps 720 mmHg 58%
    18:00 +14°C° 0 mm 3 mps 720 mmHg 63%
    19:00 +14°C° 0 mm 2 mps 720 mmHg 69%
    20:00 +14°C° 0 mm 2 mps 720 mmHg 70%
    21:00 +13°C° 0 mm 2 mps 720 mmHg 71%
    22:00 +13°C° 0 mm 1 mps 720 mmHg 72%
    23:00 +13°C° 0 mm 1 mps 720 mmHg 72%

    Tomorrow, 23 September, Monday

    Time Temperature Precipitation Wind Pressure Humidity
    00:00 +13°C° 0 mm 1 mps 720 mmHg 73%
    01:00 +12°C° 0 mm 1 mps 719 mmHg 74%
    02:00 +12°C° 0 mm 1 mps 719 mmHg 74%
    03:00 +12°C° 0 mm 1 mps 719 mmHg 75%
    04:00 +12°C° 0 mm 1 mps 719 mmHg 75%
    05:00 +12°C° 0 mm 1 mps 719 mmHg 73%
    06:00 +12°C° 0 mm 0 mps 719 mmHg 71%
    07:00 +13°C° 0 mm 0 mps 719 mmHg 70%
    08:00 +15°C° 0 mm 1 mps 720 mmHg 65%
    09:00 +18°C° 0 mm 1 mps 720 mmHg 60%
    10:00 +19°C° 0 mm 2 mps 721 mmHg 56%
    11:00 +19°C° 0 mm 2 mps 720 mmHg 55%
    12:00 +20°C° 0 mm 3 mps 720 mmHg 54%
    13:00 +21°C° 0 mm 3 mps 720 mmHg 53%
    14:00 +20°C° 0 mm 4 mps 720 mmHg 57%
    15:00 +20°C° 0 mm 4 mps 720 mmHg 62%
    16:00 +19°C° 0 mm 5 mps 720 mmHg 67%
    17:00 +18°C° 0 mm 4 mps 721 mmHg 70%
    18:00 +17°C° 0 mm 4 mps 721 mmHg 73%
    19:00 +15°C° 0 mm 4 mps 721 mmHg 77%
    20:00 +14°C° 0 mm 4 mps 721 mmHg 77%
    21:00 +14°C° 0 mm 4 mps 722 mmHg 77%
    22:00 +14°C° 0 mm 4 mps 722 mmHg 77%
    23:00 +14°C° 0 mm 4 mps 722 mmHg 76%

    Day after tomorrow, 24 September, Tuesday

    Time Temperature Precipitation Wind Pressure Humidity
    00:00 +14°C° 0 mm 4 mps 722 mmHg 76%
    01:00 +13°C° 0 mm 4 mps 722 mmHg 76%
    02:00 +13°C° 0 mm 3 mps 722 mmHg 76%
    03:00 +13°C° 0 mm 3 mps 722 mmHg 77%
    04:00 +13°C° 0 mm 3 mps 722 mmHg 78%
    05:00 +13°C° 0 mm 3 mps 722 mmHg 77%
    06:00 +13°C° 0 mm 3 mps 722 mmHg 77%
    07:00 +14°C° 0 mm 2 mps 722 mmHg 77%
    08:00 +16°C° 0 mm 3 mps 722 mmHg 71%
    09:00 +17°C° 0 mm 3 mps 722 mmHg 66%
    10:00 +19°C° 0 mm 3 mps 722 mmHg 60%
    11:00 +20°C° 0 mm 3 mps 722 mmHg 57%
    12:00 +20°C° 0 mm 2 mps 721 mmHg 54%
    13:00 +21°C° 0 mm 2 mps 721 mmHg 51%
    14:00 +21°C° 0 mm 2 mps 720 mmHg 53%
    15:00 +22°C° 0 mm 1 mps 720 mmHg 55%
    16:00 +21°C° 0 mm 1 mps 720 mmHg 57%
    17:00 +20°C° 0 mm 1 mps 719 mmHg 63%
    18:00 +18°C° 0 mm 1 mps 719 mmHg 70%
    19:00 +15°C° 0 mm 1 mps 719 mmHg 76%
    20:00 +15°C° 0 mm 1 mps 719 mmHg 78%
    21:00 +14°C° 0 mm 1 mps 719 mmHg 80%
    22:00 +14°C° 0 mm 2 mps 719 mmHg 82%
    23:00 +14°C° 0 mm 2 mps 719 mmHg 81%

    25 September, Wednesday

    Time Temperature Precipitation Wind Pressure Humidity
    00:00 +14°C° 0 mm 1 mps 719 mmHg 81%
    01:00 +13°C° 0 mm 1 mps 719 mmHg 81%
    02:00 +13°C° 0 mm 1 mps 718 mmHg 81%
    03:00 +13°C° 0 mm 1 mps 718 mmHg 81%
    04:00 +13°C° 0 mm 1 mps 718 mmHg 81%
    05:00 +14°C° 0 mm 1 mps 718 mmHg 79%
    06:00 +14°C° 0 mm 1 mps 718 mmHg 77%
    07:00 +15°C° 0 mm 1 mps 719 mmHg 75%
    08:00 +16°C° 0 mm 1 mps 719 mmHg 70%
    09:00 +19°C° 0 mm 1 mps 719 mmHg 64%
    10:00 +20°C° 0 mm 1 mps 719 mmHg 59%
    11:00 +21°C° 0.3 mm 1 mps 719 mmHg 59%
    12:00 +21°C° 0.3 mm 1 mps 719 mmHg 59%
    13:00 +21°C° 0.3 mm 1 mps 719 mmHg 59%
    14:00 +20°C° 0.9 mm 1 mps 718 mmHg 67%
    15:00 +17°C° 0.9 mm 2 mps 718 mmHg 75%
    16:00 +14°C° 0.9 mm 3 mps 718 mmHg 83%
    17:00 +14°C° 0.7 mm 3 mps 718 mmHg 84%
    18:00 +13°C° 0.7 mm 3 mps 718 mmHg 84%
    19:00 +12°C° 0.7 mm 3 mps 719 mmHg 84%
    20:00 +12°C° 1.7 mm 3 mps 719 mmHg 86%
    21:00 +12°C° 1.7 mm 3 mps 719 mmHg 87%
    22:00 +11°C° 1.7 mm 3 mps 720 mmHg 89%
    23:00 +12°C° 1.1 mm 2 mps 720 mmHg 89%

    26 September, Thursday

    Time Temperature Precipitation Wind Pressure Humidity
    00:00 +12°C° 1.1 mm 1 mps 720 mmHg 89%
    01:00 +12°C° 1.1 mm 1 mps 720 mmHg 90%
    02:00 +12°C° 0.1 mm 1 mps 720 mmHg 90%
    03:00 +12°C° 0.1 mm 1 mps 720 mmHg 90%
    04:00 +12°C° 0.1 mm 1 mps 721 mmHg 89%
    05:00 +12°C° 0 mm 1 mps 721 mmHg 88%
    06:00 +12°C° 0 mm 1 mps 721 mmHg 87%
    07:00 +12°C° 0 mm 1 mps 721 mmHg 85%
    08:00 +14°C° 0 mm 1 mps 722 mmHg 77%
    09:00 +16°C° 0 mm 1 mps 722 mmHg 68%
    10:00 +18°C° 0 mm 2 mps 723 mmHg 60%
    11:00 +18°C° 0.1 mm 2 mps 722 mmHg 57%
    12:00 +19°C° 0.1 mm 2 mps 722 mmHg 55%
    13:00 +19°C° 0.1 mm 2 mps 722 mmHg 52%
    14:00 +19°C° 0 mm 2 mps 722 mmHg 54%
    15:00 +19°C° 0 mm 2 mps 722 mmHg 55%
    16:00 +19°C° 0 mm 2 mps 722 mmHg 57%
    17:00 +18°C° 0 mm 2 mps 722 mmHg 62%
    18:00 +16°C° 0 mm 1 mps 723 mmHg 68%
    19:00 +15°C° 0 mm 1 mps 723 mmHg 73%
    20:00 +15°C° 0 mm 1 mps 723 mmHg 75%
    21:00 +14°C° 0 mm 1 mps 723 mmHg 77%
    22:00 +13°C° 0 mm 1 mps 724 mmHg 79%
    23:00 +13°C° 0 mm 1 mps 724 mmHg 80%

    27 September, Friday

    Time Temperature Precipitation Wind Pressure Humidity
    00:00 +13°C° 0 mm 1 mps 724 mmHg 80%
    01:00 +13°C° 0 mm 1 mps 724 mmHg 81%
    02:00 +14°C° 0.1 mm 1 mps 724 mmHg 81%
    03:00 +14°C° 0.1 mm 1 mps 724 mmHg 82%
    04:00 +13°C° 0.1 mm 0 mps 724 mmHg 83%
    05:00 +14°C° 0 mm 1 mps 724 mmHg 83%
    06:00 +14°C° 0 mm 1 mps 724 mmHg 82%
    07:00 +14°C° 0 mm 1 mps 725 mmHg 82%
    08:00 +16°C° 0 mm 1 mps 725 mmHg 75%
    09:00 +19°C° 0 mm 1 mps 725 mmHg 69%
    10:00 +21°C° 0 mm 1 mps 725 mmHg 62%
    11:00 +20°C° 0 mm 2 mps 725 mmHg 59%
    12:00 +21°C° 0 mm 2 mps 725 mmHg 56%
    13:00 +22°C° 0 mm 3 mps 724 mmHg 53%
    14:00 +22°C° 0 mm 3 mps 724 mmHg 55%
    15:00 +21°C° 0 mm 3 mps 724 mmHg 57%
    16:00 +21°C° 0 mm 3 mps 724 mmHg 59%
    17:00 +19°C° 0 mm 2 mps 724 mmHg 65%
    18:00 +18°C° 0 mm 2 mps 724 mmHg 71%
    19:00 +16°C° 0 mm 2 mps 724 mmHg 77%
    20:00 +16°C° 0 mm 2 mps 724 mmHg 78%
    21:00 +16°C° 0 mm 2 mps 724 mmHg 78%
    22:00 +16°C° 0 mm 2 mps 724 mmHg 79%
    23:00 +15°C° 0 mm 2 mps 724 mmHg 79%
    Show more